[[{"header":{"parameterUnit":"m.s-1","parameterCategory":1,"la1":30.2992,"la2":30.254,"lo1":-89.0895,"lo2":-89.0443,"dy":0.0025,"dx":0.0025,"nx":19,"ny":19,"refTime":"2026-04-16T03:00:00:Z","depth":0,"parameterNumber":2,"parameterNumberName":"U-component_of_WINDS"},"data":[0,0,0,-0.0633,-0.0634,-0.0687,-0.0687,-0.0761,-0.0761,0,0,0,0,0,0,0,0,0,0,0,-0.0622,-0.0622,-0.0633,-0.0634,-0.0687,-0.0687,-0.0761,-0.0761,0,0,0,0,0,0,0,0,0,0,0,-0.0621,-0.0622,-0.0623,-0.0635,-0.0687,-0.0687,-0.076,-0.0718,0,0,0,0,0,0,0,0,0,0,-0.0666,-0.066,-0.0622,-0.0623,-0.0635,-0.0687,-0.0687,-0.0716,-0.0721,-0.074,0,-0.0758,0,-0.0761,-0.0767,-0.0767,0,0,0,-0.0631,-0.0656,-0.0666,-0.0623,-0.0635,-0.0686,-0.0662,-0.0719,-0.0724,-0.0746,-0.0759,-0.0761,-0.0762,-0.0767,-0.0768,-0.0886,-0.0886,0,0,-0.0628,-0.0633,-0.0663,-0.067,-0.0662,-0.0661,-0.0664,-0.0722,-0.0736,-0.0759,-0.0763,-0.0763,-0.0768,-0.0769,-0.0885,-0.0886,0,0,0,-0.0622,-0.0631,-0.064,-0.0667,-0.0676,-0.0662,-0.0666,-0.0733,-0.0736,-0.0764,-0.0764,-0.0768,-0.0769,-0.0884,-0.0885,-0.0924,0,0,0,-0.062,-0.0628,-0.0639,-0.0643,-0.0675,-0.0705,-0.0676,-0.0732,-0.0738,-0.0764,-0.0768,-0.077,-0.0884,-0.0885,-0.0921,-0.0942,0,0,0,-0.0617,-0.0627,-0.0636,-0.0643,-0.0665,-0.0704,-0.071,-0.0733,-0.0739,-0.0767,-0.077,-0.0883,-0.0885,-0.0919,-0.0938,-0.0974,0,0,0,-0.0614,-0.067,-0.0637,-0.0699,-0.0665,-0.0728,-0.071,-0.0756,-0.0785,-0.0769,-0.0884,-0.0885,-0.0918,-0.0935,-0.0972,-0.1006,-0.102,0,0,-0.0687,-0.0679,-0.0715,-0.0687,-0.0757,-0.0719,-0.0795,-0.0817,-0.0816,-0.0863,-0.0865,-0.0922,-0.0938,-0.0974,-0.11,-0.1112,0,0,0,-0.074,-0.0766,-0.0783,-0.0811,-0.0829,-0.0847,-0.0857,-0.0865,-0.0904,-0.0841,-0.0945,-0.0954,-0.0975,-0.0991,-0.1001,-0.1019,-0.0893,-0.0893,-0.0893,-0.085,-0.0845,-0.0904,-0.0905,-0.0933,-0.0942,-0.0964,-0.0976,-0.0963,-0.0988,-0.1002,-0.108,-0.1099,-0.1106,-0.1125,-0.102,-0.102,-0.102,-0.102,-0.0956,-0.0992,-0.0973,-0.1024,-0.1019,-0.1061,-0.1073,-0.1062,-0.1101,-0.1069,-0.1087,-0.1052,-0.1119,-0.1135,-0.1023,-0.1022,-0.1022,-0.1022,-0.1022,-0.1028,-0.1044,-0.1053,-0.1092,-0.1123,-0.1123,-0.1161,-0.1154,-0.1148,-0.1166,-0.118,-0.118,-0.1178,-0.1173,-0.1174,-0.1174,-0.1174,-0.1174,-0.1174,-0.1099,-0.1107,-0.114,-0.1164,-0.1181,-0.1202,-0.1212,-0.1229,-0.1245,-0.1237,-0.1237,-0.1222,-0.1127,-0.1103,-0.1179,-0.1178,-0.1177,-0.1177,-0.1177,-0.1209,-0.1183,-0.1234,-0.1251,-0.1278,-0.1309,-0.1299,-0.1333,-0.1346,-0.1365,-0.1346,-0.1276,-0.1267,-0.126,-0.124,-0.1347,-0.1347,-0.1347,-0.1347,-0.1269,-0.1264,-0.1314,-0.1342,-0.1367,-0.1364,-0.1422,-0.143,-0.1435,-0.1442,-0.1426,-0.1399,-0.1391,-0.1387,-0.1376,-0.1358,-0.1492,-0.1492,-0.1493,-0.1337,-0.1333,-0.1384,-0.1387,-0.1408,-0.1426,-0.148,-0.1512,-0.1512,-0.1498,-0.1448,-0.1442,-0.1398,-0.1385,-0.137,-0.1354,-0.1319,0,0]},{"header":{"parameterUnit":"m.s-1","parameterCategory":1,"la1":30.2992,"la2":30.254,"lo1":-89.0895,"lo2":-89.0443,"dy":0.0025,"dx":0.0025,"nx":19,"ny":19,"refTime":"2026-04-16T03:00:00:Z","depth":0,"parameterNumber":3,"parameterNumberName":"V-component_of_WINDS"},"data":[0,0,0,3.2799,3.2798,3.2757,3.2757,3.2707,3.2707,0,0,0,0,0,0,0,0,0,0,0,3.2813,3.2812,3.2799,3.2798,3.2757,3.2757,3.2707,3.2707,0,0,0,0,0,0,0,0,0,0,0,3.2813,3.2813,3.2812,3.2798,3.2758,3.2757,3.2707,3.2737,0,0,0,0,0,0,0,0,0,0,3.2777,3.279,3.2813,3.2812,3.2798,3.2758,3.2757,3.2739,3.2735,3.2727,0,3.2719,0,3.2712,3.2703,3.2703,0,0,0,3.2797,3.2793,3.2781,3.2812,3.2798,3.2758,3.2776,3.2737,3.2733,3.2722,3.2719,3.2717,3.2711,3.2703,3.2703,3.2658,3.2658,0,0,3.2799,3.2806,3.2784,3.2779,3.2785,3.2777,3.2774,3.2735,3.2731,3.2718,3.2715,3.2711,3.2703,3.2702,3.2658,3.2658,0,0,0,3.2807,3.2807,3.2796,3.2781,3.2773,3.2776,3.2773,3.2732,3.2728,3.2715,3.271,3.2702,3.2702,3.2659,3.2658,3.2658,0,0,0,3.2808,3.2812,3.2797,3.2801,3.2774,3.2752,3.2772,3.2731,3.2726,3.271,3.2702,3.2701,3.2659,3.2658,3.2658,3.2656,0,0,0,3.2815,3.2813,3.2807,3.2801,3.2784,3.2753,3.2746,3.273,3.2724,3.2703,3.2701,3.2659,3.2658,3.2658,3.2656,3.2646,0,0,0,3.2824,3.2806,3.2807,3.2786,3.2784,3.2753,3.2747,3.2723,3.2705,3.2702,3.2659,3.2658,3.2658,3.2656,3.2647,3.2639,3.2637,0,0,3.2805,3.2804,3.2791,3.2791,3.2761,3.2759,3.2729,3.2706,3.2698,3.2672,3.2671,3.2658,3.2656,3.2647,3.2621,3.2619,0,0,0,3.2787,3.2777,3.2768,3.2752,3.2736,3.2722,3.2703,3.2695,3.2673,3.2686,3.2652,3.265,3.2645,3.264,3.2639,3.2634,3.2657,3.2657,3.2657,3.2767,3.276,3.2738,3.2725,3.2711,3.2693,3.268,3.2667,3.2661,3.2654,3.2646,3.2631,3.2627,3.2626,3.262,3.2641,3.2641,3.2641,3.2641,3.2738,3.2724,3.2721,3.2698,3.269,3.2671,3.2654,3.2652,3.2633,3.2636,3.263,3.2634,3.2624,3.2619,3.2641,3.2641,3.2641,3.2641,3.2641,3.2724,3.2716,3.2708,3.2687,3.2671,3.2659,3.2642,3.2635,3.2628,3.2623,3.2614,3.2614,3.2613,3.262,3.262,3.262,3.262,3.2619,3.2619,3.2713,3.2704,3.269,3.2673,3.2664,3.265,3.2635,3.2625,3.2612,3.2609,3.2608,3.2605,3.2625,3.263,3.2619,3.2619,3.2619,3.2619,3.2619,3.2685,3.2691,3.267,3.2661,3.2641,3.2627,3.262,3.2601,3.2592,3.2584,3.2583,3.2599,3.2596,3.2598,3.2602,3.2584,3.2584,3.2584,3.2584,3.2673,3.2672,3.2651,3.2636,3.2622,3.2614,3.2591,3.258,3.2569,3.2563,3.2565,3.2571,3.2572,3.2569,3.2571,3.2575,3.2551,3.2551,3.2551,3.2656,3.2654,3.2636,3.2626,3.2611,3.2599,3.2578,3.2562,3.2551,3.2549,3.2559,3.256,3.2569,3.2572,3.2568,3.2571,3.2578,0,0]}]]